sat.trackr.live / text

‹ back to catalog

STARLINK-35039

NORAD 65451 · 2025-194T

PAYLOAD ACTIVE UNKNOWN

§ Identity

Operator
Country
US
Launch date
2025-09-03
Launch site
AFWTR
Launch vehicle
Mass (kg)
RCS (m²)

Purposes: comms

External: N2YO · Heavens-Above · Gunter

§ Orbital elements

Epoch: 2026-09-20T14:25:56.429184Z

Period
93.91 min
Inclination
97.2828°
Eccentricity
0.0001837
Mean motion
15.33443066 rev/d
Perigee alt
464.3 km
Apogee alt
466.8 km
Semi-major
6,843.7 km
B*
3.7099e-4
RAAN
113.2474°
Arg perigee
87.1873°
Mean anomaly
272.9580°
Rev number
5,908

§ Raw data

STARLINK-350391 65451U 25194T   26263.60134756  .00011920  00000+0  37099-3 0  99962 65451  97.2828 113.2474 0001837  87.1873 272.9580 15.33443066 59084

JSON: /api/v1/satellites/65451 · /tle

For live sub-satellite position, see the globe view (requires WebGL).

§ Visibility from observer

Set your observer location to see the next 7 days of passes ≥ 10°. The values pass through the URL so the page stays shareable.

No JS? Fill the form by hand. The geolocation button needs JavaScript.